Flag for Germany Weather past 2 weeks in Friesoythe, Lower Saxony, Germany

Now
52 °F

Cool.


Feels Like: 51 °F
Forecast: 46 / 56 °F
Wind: 3 mph from West

Location: Meppen-Mil

Current Time: May 25, 2015 at 11:56:36 PM

Latest Report: May 25, 2015 at 10:20 PM


Visibility: 6 mi

Pressure: 30.01 "Hg

Humidity: 72%

Dew point: 43 °F

Location of FriesoytheLocation

Historic Weather in Friesoythe — Graph

°F

Friesoythe temperature yesterday

Maximum temperature yesterday: 68 °F (at 6:20 PM)
Minimum temperature yesterday: 34 °F (at 5:20 AM)
Average temperature yesterday: 52 °F

Past Weeks' High & Low Weather Summary

 TemperatureHumidityPressure
High79 °F (May 11, 4:20 PM)100% (May 16, 5:20 AM)30.33 "Hg (May 16, 5:20 AM)
Low34 °F (May 16, 4:20 AM)24% (May 24, 6:20 PM)29.56 "Hg (May 19, 5:20 AM)
Average53 °F68%30.04 "Hg
* Reported May 10 10:20 PM — May 25 10:20 PM, Friesoythe, Weather by CustomWeather, © 2015

Note: Actual official high and low records may vary slightly from our data, if they occured in-between our weather recording intervals... More about our weather records

Advertising

Friesoythe weather history for previous 24 hours

 ConditionsComfort  
Time TempWeatherWind HumidityBarometerVisibility
10:20 PM
Mon, May 25
52 °FCool.3 mph72%30.01 "Hg6 mi
9:20 PM52 °FCool.5 mph72%29.98 "Hg6 mi
8:20 PM54 °FCool.6 mph67%29.98 "Hg6 mi
7:20 PM55 °FRefreshingly cool.6 mph55%29.98 "Hg6 mi
6:20 PM57 °FRefreshingly cool.6 mph51%29.95 "HgN/A
5:20 PM57 °FRefreshingly cool.7 mph48%29.98 "HgN/A
4:20 PM59 °FRefreshingly cool.7 mph48%29.98 "Hg6 mi
3:20 PM59 °FRefreshingly cool.7 mph45%29.95 "Hg6 mi
2:20 PM59 °FRefreshingly cool.9 mph42%29.98 "Hg5 mi
1:20 PM59 °FRefreshingly cool.9 mph42%29.98 "Hg5 mi
12:20 PM59 °FRefreshingly cool.7 mph45%29.98 "Hg5 mi
11:20 AM59 °FRefreshingly cool.6 mph51%29.98 "Hg4 mi
10:20 AM55 °FCool.8 mph63%29.98 "Hg4 mi
9:20 AM54 °FCool.6 mph72%29.98 "Hg4 mi
8:20 AM52 °FCool.7 mph77%29.98 "Hg5 mi
7:20 AM52 °FCool.6 mph77%29.98 "Hg5 mi
6:20 AM54 °FCool.6 mph88%29.95 "Hg4 mi
5:20 AM54 °FCool.5 mph82%29.95 "Hg4 mi
4:20 AM54 °FCool.6 mph82%29.98 "Hg4 mi
3:20 AM52 °FCool.3 mph82%29.98 "Hg5 mi
2:20 AM52 °FCool.1 mph82%29.98 "Hg5 mi
1:20 AM54 °FCool.1 mph72%30.01 "Hg5 mi
12:20 AM54 °FCool.3 mph67%30.01 "Hg5 mi
11:20 PM
Sun, May 24
54 °FCool.3 mph63%30.01 "Hg6 mi
Weather by CustomWeather, © 2015

See weather overviewHow to use our weather pages